SV2LPQ-2 Weather Reports


time (UTC)temp
C
wind
direction
speed
KPH
gust
KPH
rain 1hr
cm
rain 24hr
cm
rain mn
cm
humidity
%
barometer
mb
20260504020104 5 112 0.0 0.0 0.00 0.00 0.00 73 1042.5
20260504015244 5 103 0.0 0.0 0.00 0.00 0.00 74 1042.5
20260504014423 5 90 0.0 0.0 0.00 0.00 0.00 74 1042.5
20260504013603 5 90 0.0 0.0 0.00 0.00 0.00 74 1042.5
20260504012743 5 68 0.0 0.0 0.00 0.00 0.00 73 1042.5
20260504011923 5 68 0.0 0.0 0.00 0.00 0.00 73 1042.5
20260504011103 5 135 0.0 0.0 0.00 0.00 0.00 72 1042.5
20260504010243 6 135 0.0 0.0 0.00 0.00 0.00 70 1042.5
20260504005422 6 135 0.0 0.0 0.00 0.00 0.00 69 1042.5
20260504004602 6 135 0.0 0.0 0.00 0.00 0.00 69 1042.5
20260504003742 6 158 0.0 0.0 0.00 0.00 0.00 67 1042.5
20260504002922 6 158 0.0 0.0 0.00 0.00 0.00 65 1042.5
20260504002102 6 180 0.0 0.0 0.00 0.00 0.00 66 1042.5
20260504001242 6 158 0.0 3.2 0.00 0.00 0.00 68 1042.5
20260504000423 6 158 0.0 0.0 0.00 0.00 0.00 67 1042.5
20260503235601 7 158 0.0 0.0 0.00 0.00 0.00 66 1042.5
20260503234741 7 158 0.0 0.0 0.00 0.00 0.00 65 1042.5
20260503233921 7 158 0.0 0.0 0.00 0.00 0.00 66 1042.5
20260503233100 7 0 0.0 0.0 0.00 0.00 0.00 68 1042.5
20260503232240 7 0 0.0 0.0 0.00 0.00 0.00 68 1042.5
20260503231420 7 0 0.0 0.0 0.00 0.00 0.00 66 1042.5
20260503230600 7 0 0.0 0.0 0.00 0.00 0.00 66 1042.5
20260503225740 7 338 0.0 0.0 0.00 0.00 0.00 65 1042.5
20260503224919 7 338 0.0 0.0 0.00 0.00 0.00 65 1042.5
20260503224059 7 338 0.0 0.0 0.00 0.00 0.00 64 1042.5
20260503223239 8 338 0.0 0.0 0.00 0.00 0.00 62 1042.5
20260503222419 8 338 0.0 0.0 0.00 0.00 0.00 58 1042.5
20260503221558 9 112 0.0 0.0 0.00 0.00 0.00 56 1042.5
20260503220738 10 112 0.0 1.6 0.00 0.00 0.00 54 1042.5
20260503215918 10 135 0.0 0.0 0.00 0.00 0.00 53 1042.5
20260503215058 10 135 0.0 3.2 0.00 0.00 0.00 53 1042.5
20260503214238 10 154 1.6 3.2 0.00 0.00 0.00 53 1042.5
20260503213417 10 136 1.6 4.8 0.00 0.00 0.00 54 1042.5
20260503212557 10 154 0.0 3.2 0.00 0.00 0.00 55 1042.5
20260503211737 10 112 0.0 0.0 0.00 0.00 0.00 54 1042.5
20260503210917 10 137 1.6 3.2 0.00 0.00 0.00 54 1042.5
20260503210057 10 155 0.0 1.6 0.00 0.00 0.00 53 1042.5
20260503205236 11 112 0.0 0.0 0.00 0.00 0.00 50 1042.5
20260503204416 11 126 1.6 4.8 0.00 0.00 0.00 49 1042.5
20260503203556 11 114 1.6 1.6 0.00 0.00 0.00 49 1042.5
20260503202736 11 112 0.0 0.0 0.00 0.00 0.00 48 1042.5
20260503201916 12 158 3.2 4.8 0.00 0.00 0.00 46 1042.5
20260503201056 12 126 1.6 0.0 0.00 0.00 0.00 46 1042.5
20260503200235 12 112 1.6 8.0 0.00 0.00 0.00 46 1042.5
20260503195415 12 133 4.8 8.0 0.00 0.00 0.00 46 1042.5
20260503194555 12 144 4.8 8.0 0.00 0.00 0.00 45 1042.5
20260503193735 13 172 3.2 14.5 0.00 0.00 0.00 44 1042.5
20260503192915 13 112 0.0 0.0 0.00 0.00 0.00 43 1042.5
20260503192055 12 171 9.7 16.1 0.00 0.00 0.00 46 1042.5
20260503191235 12 155 3.2 11.3 0.00 0.00 0.00 45 1042.5
20260503190414 13 158 4.8 11.3 0.00 0.00 0.00 45 1042.5
20260503185554 14 158 0.0 0.0 0.00 0.00 0.00 40 1042.5
20260503184734 14 133 3.2 8.0 0.00 0.00 0.00 39 1042.5
20260503183914 14 90 1.6 1.6 0.00 0.00 0.00 39 1042.5
20260503183054 15 90 0.0 0.0 0.00 0.00 0.00 38 1042.5
20260503182234 15 90 0.0 1.6 0.00 0.00 0.00 37 1042.5
20260503181413 15 68 0.0 0.0 0.00 0.00 0.00 37 1042.5
20260503180553 15 90 3.2 3.2 0.00 0.00 0.00 37 1042.5
20260503174913 15 115 1.6 3.2 0.00 0.00 0.00 38 1042.5
20260503174053 16 122 4.8 9.7 0.00 0.00 0.00 39 1042.5
20260503173233 16 116 1.6 4.8 0.00 0.00 0.00 39 1042.5
20260503172413 16 135 0.0 0.0 0.00 0.00 0.00 38 1042.5
20260503171553 16 22 3.2 0.0 0.00 0.00 0.00 37 1042.5
20260503170733 16 90 0.0 0.0 0.00 0.00 0.00 38 1042.5
20260503150233 19 135 0.0 0.0 0.00 0.00 0.00 28 1042.5
20260503131412 20 31 3.2 8.0 0.00 0.00 0.00 29 1042.5
20260503130551 20 47 9.7 14.5 0.00 0.00 0.00 28 1042.5
20260503100229 18 25 8.0 11.3 0.00 0.00 0.00 32 1042.5
20260503090407 17 35 9.7 8.0 0.00 0.00 0.00 32 1042.5
20260503080917 16 0 3.2 8.0 0.00 0.00 0.00 34 1042.5
20260503072737 15 3 4.8 12.9 0.00 0.00 0.00 37 1042.5
20260503071916 15 36 8.0 12.9 0.00 0.00 0.00 38 1042.5
20260503071056 15 16 3.2 11.3 0.00 0.00 0.00 39 1042.5
20260503070236 15 27 3.2 8.0 0.00 0.00 0.00 38 1042.5
20260503054736 12 71 0.0 0.0 0.00 0.00 0.00 52 1042.5
20260503053916 11 47 0.0 3.2 0.00 0.00 0.00 55 1042.5
20260503053056 11 60 0.0 3.2 0.00 0.00 0.00 57 1042.5
20260503052236 12 30 0.0 0.0 0.00 0.00 0.00 58 1042.5
20260503051416 11 17 0.0 0.0 0.00 0.00 0.00 63 1042.5
20260503050556 11 25 0.0 0.0 0.00 0.00 0.00 66 1042.5
20260503045736 10 29 1.6 3.2 0.00 0.00 0.00 67 1042.5
20260503044916 10 94 0.0 0.0 0.00 0.00 0.00 67 1042.5
20260503044056 10 85 1.6 4.8 0.00 0.00 0.00 66 1042.5
20260503043236 10 78 0.0 0.0 0.00 0.00 0.00 67 1042.5
20260503042416 9 13 0.0 0.0 0.00 0.00 0.00 69 1042.5
20260503041556 8 22 0.0 0.0 0.00 0.00 0.00 72 1042.5
20260503040737 8 90 0.0 3.2 0.00 0.00 0.00 73 1042.5
20260503035916 8 112 0.0 0.0 0.00 0.00 0.00 73 1042.5
20260503035056 8 90 0.0 0.0 0.00 0.00 0.00 72 1042.5
20260503034236 8 45 0.0 0.0 0.00 0.00 0.00 72 1042.5
20260503033416 8 121 0.0 1.6 0.00 0.00 0.00 72 1042.5
20260503032556 8 135 0.0 0.0 0.00 0.00 0.00 72 1042.5
20260503031736 8 112 0.0 0.0 0.00 0.00 0.00 72 1042.5
20260503030916 8 45 0.0 0.0 0.00 0.00 0.00 72 1042.5
20260503030055 8 22 0.0 0.0 0.00 0.00 0.00 73 1042.5
20260503025236 8 112 0.0 0.0 0.00 0.00 0.00 74 1042.5
20260503024415 8 84 0.0 0.0 0.00 0.00 0.00 73 1042.5
20260503023555 8 24 0.0 0.0 0.00 0.00 0.00 73 1042.5
20260503022736 8 92 0.0 0.0 0.00 0.00 0.00 74 1042.5
20260503021915 8 112 0.0 0.0 0.00 0.00 0.00 72 1042.5
20260503021055 8 112 0.0 0.0 0.00 0.00 0.00 73 1042.5
20260503020236 8 112 0.0 0.0 0.00 0.00 0.00 75 1042.5